,,PressureMeas_1m,,PRMeasQMR101_1,,RHStat155_1m_1,,SRMeasQMS101R_1m,,TAStat155_1m_1,,GenWind_1,,GenWind_1,
2019-10-05, 00:00:06,VALID,917.673,VALID,0.0,VALID,98.407,VALID,-0.021,VALID,20.847,INVALID,360.0,VALID,0.262,
2019-10-05, 00:01:06,VALID,917.644,VALID,0.0,VALID,97.095,VALID,-0.033,VALID,20.811,VALID,102.0,VALID,1.056,
2019-10-05, 00:02:06,VALID,917.609,VALID,0.0,VALID,96.155,VALID,-0.035,VALID,21.004,VALID,162.0,VALID,0.51,
2019-10-05, 00:03:06,VALID,917.56,VALID,0.0,VALID,95.499,VALID,-0.03,VALID,21.117,INVALID,360.0,VALID,0.054,
2019-10-05, 00:04:06,VALID,917.553,VALID,0.0,VALID,94.782,VALID,-0.04,VALID,21.193,INVALID,360.0,VALID,0.061,
2019-10-05, 00:05:06,VALID,917.555,VALID,0.0,VALID,94.345,VALID,-0.023,VALID,21.239,VALID,126.0,VALID,0.657,
2019-10-05, 00:06:06,VALID,917.544,VALID,0.0,VALID,92.869,VALID,0.011,VALID,21.259,VALID,107.0,VALID,1.203,
2019-10-05, 00:07:06,VALID,917.557,VALID,0.0,VALID,92.312,VALID,0.014,VALID,21.336,VALID,96.0,VALID,0.823,
2019-10-05, 00:08:06,VALID,917.535,VALID,0.0,VALID,92.745,VALID,-0.003,VALID,21.35,VALID,95.0,VALID,0.413,
2019-10-05, 00:09:06,VALID,917.478,VALID,0.0,VALID,92.854,VALID,-0.005,VALID,21.317,VALID,129.0,VALID,0.26,
2019-10-05, 00:10:06,VALID,917.465,VALID,0.0,VALID,92.57,VALID,0.012,VALID,21.337,VALID,130.0,VALID,0.291,
2019-10-05, 00:11:06,VALID,917.437,VALID,0.0,VALID,92.544,VALID,-0.001,VALID,21.355,VALID,152.0,VALID,0.59,
2019-10-05, 00:12:06,VALID,917.435,VALID,0.0,VALID,92.931,VALID,0.005,VALID,21.342,VALID,143.0,VALID,0.2,
2019-10-05, 00:13:06,VALID,917.425,VALID,0.0,VALID,93.238,VALID,0.012,VALID,21.312,VALID,149.0,VALID,0.612,
2019-10-05, 00:14:06,VALID,917.434,VALID,0.0,VALID,93.502,VALID,0.009,VALID,21.268,INVALID,360.0,VALID,0.049,
2019-10-05, 00:15:06,VALID,917.417,VALID,0.0,VALID,93.567,VALID,0.017,VALID,21.24,VALID,119.0,VALID,0.749,
2019-10-05, 00:16:06,VALID,917.412,VALID,0.0,VALID,93.597,VALID,0.007,VALID,21.25,VALID,114.0,VALID,0.396,
2019-10-05, 00:17:06,VALID,917.412,VALID,0.0,VALID,93.783,VALID,0.024,VALID,21.252,VALID,159.0,VALID,0.682,
2019-10-05, 00:18:06,VALID,917.373,VALID,0.0,VALID,93.638,VALID,0.023,VALID,21.249,VALID,107.0,VALID,1.127,
2019-10-05, 00:19:06,VALID,917.378,VALID,0.0,VALID,92.967,VALID,0.02,VALID,21.285,VALID,116.0,VALID,0.667,
2019-10-05, 00:20:06,VALID,917.366,VALID,0.0,VALID,92.695,VALID,0.026,VALID,21.312,VALID,105.0,VALID,1.515,
2019-10-05, 00:21:06,VALID,917.328,VALID,0.0,VALID,92.377,VALID,0.009,VALID,21.321,VALID,107.0,VALID,1.266,
2019-10-05, 00:22:06,VALID,917.329,VALID,0.0,VALID,92.107,VALID,0.005,VALID,21.368,VALID,150.0,VALID,0.603,
2019-10-05, 00:23:06,VALID,917.309,VALID,0.0,VALID,92.115,VALID,-0.004,VALID,21.406,VALID,129.0,VALID,0.487,
2019-10-05, 00:24:06,VALID,917.279,VALID,0.0,VALID,91.814,VALID,-0.003,VALID,21.429,VALID,158.0,VALID,0.495,
2019-10-05, 00:25:06,VALID,917.277,VALID,0.0,VALID,91.38,VALID,-0.016,VALID,21.442,VALID,148.0,VALID,0.226,
2019-10-05, 00:26:06,VALID,917.292,VALID,0.0,VALID,91.886,VALID,-0.013,VALID,21.474,INVALID,360.0,VALID,0.0,
2019-10-05, 00:27:06,VALID,917.234,VALID,0.0,VALID,91.88,VALID,-0.016,VALID,21.465,VALID,243.0,VALID,0.618,
2019-10-05, 00:28:06,VALID,917.279,VALID,0.0,VALID,91.644,VALID,-0.01,VALID,21.466,INVALID,360.0,VALID,0.207,
2019-10-05, 00:29:06,VALID,917.289,VALID,0.0,VALID,92.205,VALID,-0.009,VALID,21.425,VALID,67.0,VALID,0.462,
2019-10-05, 00:30:06,VALID,917.263,VALID,0.0,VALID,92.438,VALID,-0.022,VALID,21.345,INVALID,360.0,VALID,0.211,
2019-10-05, 00:31:06,VALID,917.267,VALID,0.0,VALID,91.799,VALID,-0.013,VALID,21.354,VALID,84.0,VALID,1.181,
2019-10-05, 00:32:06,VALID,917.255,VALID,0.0,VALID,91.212,VALID,-0.002,VALID,21.425,VALID,115.0,VALID,0.91,
2019-10-05, 00:33:06,VALID,917.252,VALID,0.0,VALID,90.655,VALID,0.003,VALID,21.508,VALID,106.0,VALID,0.487,
2019-10-05, 00:34:06,VALID,917.223,VALID,0.0,VALID,91.029,VALID,0.01,VALID,21.533,VALID,343.0,VALID,0.913,
2019-10-05, 00:35:06,VALID,917.239,VALID,0.0,VALID,92.453,VALID,-0.004,VALID,21.501,VALID,246.0,VALID,0.922,
2019-10-05, 00:36:06,VALID,917.225,VALID,0.0,VALID,94.722,VALID,0.025,VALID,21.314,VALID,273.0,VALID,0.871,
2019-10-05, 00:37:06,VALID,917.225,VALID,0.0,VALID,95.926,VALID,0.028,VALID,21.148,VALID,300.0,VALID,0.612,
2019-10-05, 00:38:06,VALID,917.238,VALID,0.0,VALID,96.65,VALID,0.014,VALID,21.039,VALID,285.0,VALID,0.53,
2019-10-05, 00:39:06,VALID,917.224,VALID,0.0,VALID,97.078,VALID,0.023,VALID,20.958,VALID,254.0,VALID,0.321,
2019-10-05, 00:40:06,VALID,917.234,VALID,0.0,VALID,97.583,VALID,0.018,VALID,20.923,INVALID,360.0,VALID,0.027,
2019-10-05, 00:41:06,VALID,917.219,VALID,0.0,VALID,97.74,VALID,0.027,VALID,20.893,INVALID,360.0,VALID,0.0,
2019-10-05, 00:42:06,VALID,917.204,VALID,0.0,VALID,97.886,VALID,0.012,VALID,20.863,INVALID,360.0,VALID,0.0,
2019-10-05, 00:43:06,VALID,917.2,VALID,0.0,VALID,97.982,VALID,0.015,VALID,20.835,INVALID,360.0,VALID,0.0,
2019-10-05, 00:44:06,VALID,917.211,VALID,0.0,VALID,98.084,VALID,0.031,VALID,20.827,INVALID,360.0,VALID,0.0,
2019-10-05, 00:45:06,VALID,917.22,VALID,0.0,VALID,98.089,VALID,0.028,VALID,20.808,INVALID,360.0,VALID,0.0,
2019-10-05, 00:46:06,VALID,917.192,VALID,0.0,VALID,98.064,VALID,0.017,VALID,20.802,INVALID,360.0,VALID,0.0,
2019-10-05, 00:47:06,VALID,917.229,VALID,0.0,VALID,98.026,VALID,0.029,VALID,20.789,INVALID,360.0,VALID,0.0,
2019-10-05, 00:48:06,VALID,917.224,VALID,0.0,VALID,98.023,VALID,0.03,VALID,20.759,INVALID,360.0,VALID,0.0,
2019-10-05, 00:49:06,VALID,917.197,VALID,0.0,VALID,97.966,VALID,0.018,VALID,20.699,INVALID,360.0,VALID,0.0,
2019-10-05, 00:50:06,VALID,917.18,VALID,0.0,VALID,98.061,VALID,0.009,VALID,20.683,INVALID,360.0,VALID,0.0,
2019-10-05, 00:51:06,VALID,917.146,VALID,0.0,VALID,98.147,VALID,0.045,VALID,20.693,INVALID,360.0,VALID,0.0,
2019-10-05, 00:52:06,VALID,917.136,VALID,0.0,VALID,98.154,VALID,0.045,VALID,20.674,INVALID,360.0,VALID,0.0,
2019-10-05, 00:53:06,VALID,917.134,VALID,0.0,VALID,98.224,VALID,0.024,VALID,20.69,INVALID,360.0,VALID,0.0,
2019-10-05, 00:54:06,VALID,917.11,VALID,0.0,VALID,98.141,VALID,0.033,VALID,20.685,INVALID,360.0,VALID,0.0,
2019-10-05, 00:55:06,VALID,917.078,VALID,0.0,VALID,98.001,VALID,0.034,VALID,20.653,INVALID,360.0,VALID,0.0,
2019-10-05, 00:56:06,VALID,917.033,VALID,0.0,VALID,97.83,VALID,0.032,VALID,20.628,INVALID,360.0,VALID,0.0,
2019-10-05, 00:57:06,VALID,917.036,VALID,0.0,VALID,97.76,VALID,0.014,VALID,20.611,INVALID,360.0,VALID,0.0,
2019-10-05, 00:58:06,VALID,917.003,VALID,0.0,VALID,97.625,VALID,0.029,VALID,20.584,INVALID,360.0,VALID,0.0,
2019-10-05, 00:59:06,VALID,916.967,VALID,0.0,VALID,97.325,VALID,0.019,VALID,20.603,INVALID,360.0,VALID,0.38,
2019-10-05, 01:00:06,VALID,916.938,VALID,0.0,VALID,97.028,VALID,0.021,VALID,20.637,VALID,149.0,VALID,0.377,
2019-10-05, 01:01:06,VALID,916.928,VALID,0.0,VALID,96.881,VALID,0.041,VALID,20.672,VALID,146.0,VALID,0.452,
2019-10-05, 01:02:06,VALID,916.908,VALID,0.0,VALID,96.63,VALID,0.039,VALID,20.7,VALID,164.0,VALID,0.812,
2019-10-05, 01:03:06,VALID,916.893,VALID,0.0,VALID,96.327,VALID,0.025,VALID,20.731,VALID,147.0,VALID,0.786,
2019-10-05, 01:04:06,VALID,916.87,VALID,0.0,VALID,96.209,VALID,0.044,VALID,20.771,VALID,159.0,VALID,0.704,
2019-10-05, 01:05:06,VALID,916.863,VALID,0.0,VALID,96.165,VALID,0.039,VALID,20.785,VALID,154.0,VALID,0.213,
2019-10-05, 01:06:06,VALID,916.88,VALID,0.0,VALID,96.2,VALID,-0.004,VALID,20.802,VALID,120.0,VALID,0.143,
2019-10-05, 01:07:06,VALID,916.898,VALID,0.0,VALID,96.162,VALID,-0.018,VALID,20.801,VALID,88.0,VALID,0.435,
2019-10-05, 01:08:06,VALID,916.892,VALID,0.0,VALID,96.364,VALID,-0.016,VALID,20.807,VALID,82.0,VALID,0.326,
2019-10-05, 01:09:06,VALID,916.901,VALID,0.0,VALID,96.347,VALID,-0.021,VALID,20.791,VALID,84.0,VALID,0.691,
2019-10-05, 01:10:06,VALID,916.875,VALID,0.0,VALID,96.229,VALID,-0.002,VALID,20.78,VALID,95.0,VALID,0.326,
2019-10-05, 01:11:06,VALID,916.873,VALID,0.0,VALID,96.237,VALID,-0.019,VALID,20.782,VALID,78.0,VALID,0.202,
2019-10-05, 01:12:06,VALID,916.877,VALID,0.0,VALID,96.439,VALID,-0.015,VALID,20.792,VALID,55.0,VALID,0.563,
2019-10-05, 01:13:06,VALID,916.847,VALID,0.0,VALID,96.252,VALID,-0.002,VALID,20.782,VALID,61.0,VALID,0.927,
2019-10-05, 01:14:06,VALID,916.785,VALID,0.0,VALID,95.978,VALID,-0.001,VALID,20.792,VALID,77.0,VALID,0.724,
2019-10-05, 01:15:06,VALID,916.777,VALID,0.0,VALID,95.661,VALID,-0.005,VALID,20.827,VALID,80.0,VALID,0.663,
2019-10-05, 01:16:06,VALID,916.774,VALID,0.0,VALID,95.668,VALID,-0.009,VALID,20.841,VALID,71.0,VALID,0.638,
2019-10-05, 01:17:06,VALID,916.766,VALID,0.0,VALID,95.764,VALID,-0.014,VALID,20.825,VALID,62.0,VALID,0.635,
2019-10-05, 01:18:06,VALID,916.741,VALID,0.0,VALID,95.621,VALID,-0.023,VALID,20.802,VALID,60.0,VALID,0.611,
2019-10-05, 01:19:06,VALID,916.752,VALID,0.0,VALID,95.631,VALID,-0.03,VALID,20.797,VALID,71.0,VALID,0.861,
2019-10-05, 01:20:06,VALID,916.749,VALID,0.0,VALID,95.565,VALID,-0.008,VALID,20.784,VALID,84.0,VALID,1.227,
2019-10-05, 01:21:06,VALID,916.75,VALID,0.0,VALID,95.725,VALID,-0.001,VALID,20.778,VALID,107.0,VALID,1.63,
2019-10-05, 01:22:06,VALID,916.71,VALID,0.0,VALID,96.372,VALID,0.0,VALID,20.758,VALID,142.0,VALID,0.81,
2019-10-05, 01:23:06,VALID,916.695,VALID,0.0,VALID,96.834,VALID,-0.002,VALID,20.738,VALID,155.0,VALID,0.207,
2019-10-05, 01:24:06,VALID,916.658,VALID,0.0,VALID,96.862,VALID,0.004,VALID,20.724,INVALID,360.0,VALID,0.141,
2019-10-05, 01:25:06,VALID,916.658,VALID,0.0,VALID,96.789,VALID,0.01,VALID,20.692,VALID,104.0,VALID,0.48,
2019-10-05, 01:26:06,VALID,916.639,VALID,0.0,VALID,96.87,VALID,-0.003,VALID,20.679,VALID,126.0,VALID,0.232,
2019-10-05, 01:27:06,VALID,916.609,VALID,0.0,VALID,96.818,VALID,-0.016,VALID,20.676,INVALID,360.0,VALID,0.016,
2019-10-05, 01:28:06,VALID,916.594,VALID,0.0,VALID,96.795,VALID,0.004,VALID,20.681,INVALID,360.0,VALID,0.0,
2019-10-05, 01:29:06,VALID,916.575,VALID,0.0,VALID,96.741,VALID,0.016,VALID,20.702,INVALID,360.0,VALID,0.0,
2019-10-05, 01:30:06,VALID,916.539,VALID,0.0,VALID,96.58,VALID,0.006,VALID,20.718,INVALID,360.0,VALID,0.161,
2019-10-05, 01:31:06,VALID,916.533,VALID,0.0,VALID,95.974,VALID,0.013,VALID,20.708,VALID,96.0,VALID,0.841,
2019-10-05, 01:32:06,VALID,916.524,VALID,0.0,VALID,95.488,VALID,0.022,VALID,20.733,VALID,66.0,VALID,0.179,
2019-10-05, 01:33:06,VALID,916.526,VALID,0.0,VALID,95.478,VALID,0.005,VALID,20.76,VALID,35.0,VALID,0.23,
2019-10-05, 01:34:06,VALID,916.502,VALID,0.0,VALID,95.316,VALID,0.008,VALID,20.776,INVALID,360.0,VALID,0.0,
2019-10-05, 01:35:06,VALID,916.472,VALID,0.0,VALID,95.159,VALID,0.012,VALID,20.78,INVALID,360.0,VALID,0.0,
2019-10-05, 01:36:06,VALID,916.457,VALID,0.0,VALID,95.011,VALID,-0.01,VALID,20.811,INVALID,360.0,VALID,0.0,
2019-10-05, 01:37:06,VALID,916.456,VALID,0.0,VALID,94.949,VALID,-0.006,VALID,20.833,INVALID,360.0,VALID,0.0,
2019-10-05, 01:38:06,VALID,916.458,VALID,0.0,VALID,94.905,VALID,0.01,VALID,20.803,INVALID,360.0,VALID,0.332,
2019-10-05, 01:39:06,VALID,916.475,VALID,0.0,VALID,94.711,VALID,-0.003,VALID,20.763,VALID,34.0,VALID,0.197,
2019-10-05, 01:40:06,VALID,916.429,VALID,0.0,VALID,94.881,VALID,-0.014,VALID,20.73,INVALID,360.0,VALID,0.048,
2019-10-05, 01:41:06,VALID,916.433,VALID,0.0,VALID,95.026,VALID,-0.018,VALID,20.726,INVALID,360.0,VALID,0.166,
2019-10-05, 01:42:06,VALID,916.411,VALID,0.0,VALID,94.721,VALID,-0.016,VALID,20.74,VALID,336.0,VALID,0.822,
2019-10-05, 01:43:06,VALID,916.411,VALID,0.0,VALID,94.262,VALID,0.007,VALID,20.788,VALID,351.0,VALID,0.743,
2019-10-05, 01:44:06,VALID,916.443,VALID,0.0,VALID,94.058,VALID,-0.003,VALID,20.836,INVALID,360.0,VALID,0.089,
2019-10-05, 01:45:06,VALID,916.387,VALID,0.0,VALID,93.907,VALID,0.008,VALID,20.87,VALID,5.0,VALID,0.262,
2019-10-05, 01:46:06,VALID,916.365,VALID,0.0,VALID,93.975,VALID,0.004,VALID,20.882,VALID,302.0,VALID,1.172,
2019-10-05, 01:47:06,VALID,916.355,VALID,0.0,VALID,94.897,VALID,0.007,VALID,20.844,VALID,298.0,VALID,1.41,
2019-10-05, 01:48:06,VALID,916.32,VALID,0.0,VALID,95.39,VALID,0.004,VALID,20.761,VALID,305.0,VALID,1.334,
2019-10-05, 01:49:06,VALID,916.333,VALID,0.0,VALID,95.933,VALID,0.021,VALID,20.705,VALID,275.0,VALID,1.391,
2019-10-05, 01:50:06,VALID,916.338,VALID,0.0,VALID,96.864,VALID,0.016,VALID,20.613,VALID,243.0,VALID,0.843,
2019-10-05, 01:51:06,VALID,916.331,VALID,0.0,VALID,97.14,VALID,0.014,VALID,20.521,VALID,280.0,VALID,1.234,
2019-10-05, 01:52:06,VALID,916.34,VALID,0.0,VALID,96.68,VALID,0.028,VALID,20.489,VALID,339.0,VALID,0.847,
2019-10-05, 01:53:06,VALID,916.302,VALID,0.0,VALID,96.92,VALID,0.002,VALID,20.52,VALID,306.0,VALID,1.124,
2019-10-05, 01:54:06,VALID,916.296,VALID,0.0,VALID,97.623,VALID,0.002,VALID,20.54,VALID,246.0,VALID,1.108,
2019-10-05, 01:55:06,VALID,916.346,VALID,0.0,VALID,98.287,VALID,0.03,VALID,20.517,VALID,258.0,VALID,0.886,
2019-10-05, 01:56:06,VALID,916.338,VALID,0.0,VALID,98.495,VALID,0.013,VALID,20.45,VALID,252.0,VALID,0.797,
2019-10-05, 01:57:06,VALID,916.333,VALID,0.0,VALID,98.783,VALID,0.003,VALID,20.437,VALID,250.0,VALID,0.938,
2019-10-05, 01:58:06,VALID,916.326,VALID,0.0,VALID,98.997,VALID,0.013,VALID,20.419,VALID,273.0,VALID,0.712,
2019-10-05, 01:59:06,VALID,916.324,VALID,0.0,VALID,99.155,VALID,0.023,VALID,20.4,INVALID,360.0,VALID,0.03,
2019-10-05, 02:00:06,VALID,916.3,VALID,0.0,VALID,99.239,VALID,0.008,VALID,20.391,INVALID,360.0,VALID,0.16,
2019-10-05, 02:01:06,VALID,916.285,VALID,0.0,VALID,99.121,VALID,0.01,VALID,20.333,VALID,255.0,VALID,0.386,
2019-10-05, 02:02:06,VALID,916.277,VALID,0.0,VALID,98.68,VALID,0.028,VALID,20.329,VALID,253.0,VALID,0.601,
2019-10-05, 02:03:06,VALID,916.292,VALID,0.0,VALID,98.035,VALID,0.012,VALID,20.354,VALID,217.0,VALID,0.488,
2019-10-05, 02:04:06,VALID,916.27,VALID,0.0,VALID,97.405,VALID,0.009,VALID,20.416,VALID,242.0,VALID,0.256,
2019-10-05, 02:05:06,VALID,916.238,VALID,0.0,VALID,97.072,VALID,0.008,VALID,20.461,VALID,233.0,VALID,0.744,
2019-10-05, 02:06:06,VALID,916.264,VALID,0.0,VALID,96.839,VALID,0.019,VALID,20.472,VALID,190.0,VALID,0.602,
2019-10-05, 02:07:06,VALID,916.261,VALID,0.0,VALID,96.603,VALID,0.018,VALID,20.431,VALID,124.0,VALID,0.566,
2019-10-05, 02:08:06,VALID,916.269,VALID,0.0,VALID,96.508,VALID,0.022,VALID,20.361,VALID,135.0,VALID,0.531,
2019-10-05, 02:09:06,VALID,916.24,VALID,0.0,VALID,96.869,VALID,0.02,VALID,20.339,VALID,215.0,VALID,0.554,
2019-10-05, 02:10:06,VALID,916.19,VALID,0.0,VALID,97.145,VALID,0.022,VALID,20.352,VALID,250.0,VALID,1.109,
2019-10-05, 02:11:06,VALID,916.175,VALID,0.0,VALID,97.172,VALID,0.038,VALID,20.401,VALID,250.0,VALID,1.526,
2019-10-05, 02:12:06,VALID,916.208,VALID,0.0,VALID,96.605,VALID,0.024,VALID,20.501,VALID,254.0,VALID,0.793,
2019-10-05, 02:13:06,VALID,916.199,VALID,0.0,VALID,96.245,VALID,0.009,VALID,20.563,VALID,244.0,VALID,0.952,
2019-10-05, 02:14:06,VALID,916.207,VALID,0.0,VALID,96.288,VALID,0.009,VALID,20.568,VALID,245.0,VALID,1.324,
2019-10-05, 02:15:06,VALID,916.225,VALID,0.0,VALID,96.35,VALID,0.015,VALID,20.567,VALID,223.0,VALID,0.702,
2019-10-05, 02:16:06,VALID,916.242,VALID,0.0,VALID,96.355,VALID,0.02,VALID,20.553,VALID,172.0,VALID,0.632,
2019-10-05, 02:17:06,VALID,916.266,VALID,0.0,VALID,96.255,VALID,0.024,VALID,20.551,VALID,196.0,VALID,0.631,
2019-10-05, 02:18:06,VALID,916.247,VALID,0.0,VALID,96.352,VALID,0.02,VALID,20.546,VALID,246.0,VALID,1.133,
2019-10-05, 02:19:06,VALID,916.244,VALID,0.0,VALID,96.196,VALID,0.028,VALID,20.575,VALID,254.0,VALID,1.897,
2019-10-05, 02:20:06,VALID,916.227,VALID,0.0,VALID,95.388,VALID,0.014,VALID,20.673,VALID,251.0,VALID,1.461,
2019-10-05, 02:21:06,VALID,916.286,VALID,0.0,VALID,94.775,VALID,-0.042,VALID,20.777,VALID,210.0,VALID,1.032,
2019-10-05, 02:22:06,VALID,916.273,VALID,0.0,VALID,94.425,VALID,-0.039,VALID,20.842,VALID,237.0,VALID,1.073,
2019-10-05, 02:23:06,VALID,916.235,VALID,0.0,VALID,94.11,VALID,-0.044,VALID,20.902,VALID,246.0,VALID,1.3,
2019-10-05, 02:24:06,VALID,916.232,VALID,0.0,VALID,93.962,VALID,-0.05,VALID,20.913,VALID,237.0,VALID,0.936,
2019-10-05, 02:25:06,VALID,916.231,VALID,0.0,VALID,93.888,VALID,-0.052,VALID,20.907,VALID,215.0,VALID,0.704,
2019-10-05, 02:26:06,VALID,916.251,VALID,0.0,VALID,93.858,VALID,-0.047,VALID,20.905,VALID,182.0,VALID,0.337,
2019-10-05, 02:27:06,VALID,916.262,VALID,0.0,VALID,93.817,VALID,-0.022,VALID,20.88,VALID,164.0,VALID,0.222,
2019-10-05, 02:28:06,VALID,916.282,VALID,0.0,VALID,93.848,VALID,-0.037,VALID,20.849,VALID,162.0,VALID,0.575,
2019-10-05, 02:29:06,VALID,916.263,VALID,0.0,VALID,93.503,VALID,-0.042,VALID,20.853,VALID,209.0,VALID,0.459,
2019-10-05, 02:30:06,VALID,916.245,VALID,0.0,VALID,93.07,VALID,-0.04,VALID,20.932,VALID,211.0,VALID,0.559,
2019-10-05, 02:31:06,VALID,916.236,VALID,0.0,VALID,92.804,VALID,-0.035,VALID,21.008,VALID,205.0,VALID,0.556,
2019-10-05, 02:32:06,VALID,916.245,VALID,0.0,VALID,92.494,VALID,-0.031,VALID,21.049,VALID,196.0,VALID,0.566,
2019-10-05, 02:33:06,VALID,916.244,VALID,0.0,VALID,92.178,VALID,-0.055,VALID,21.089,VALID,174.0,VALID,0.617,
2019-10-05, 02:34:06,VALID,916.225,VALID,0.0,VALID,92.493,VALID,-0.041,VALID,21.07,VALID,189.0,VALID,0.63,
2019-10-05, 02:35:06,VALID,916.196,VALID,0.0,VALID,92.728,VALID,-0.024,VALID,21.035,VALID,197.0,VALID,0.504,
2019-10-05, 02:36:06,VALID,916.17,VALID,0.0,VALID,92.669,VALID,0.017,VALID,21.043,VALID,230.0,VALID,0.641,
2019-10-05, 02:37:06,VALID,916.166,VALID,0.0,VALID,92.523,VALID,0.012,VALID,21.049,INVALID,360.0,VALID,0.113,
2019-10-05, 02:38:06,VALID,916.17,VALID,0.0,VALID,92.516,VALID,0.006,VALID,21.044,INVALID,360.0,VALID,0.085,
2019-10-05, 02:39:06,VALID,916.171,VALID,0.0,VALID,92.4,VALID,0.006,VALID,21.033,INVALID,360.0,VALID,0.053,
2019-10-05, 02:40:06,VALID,916.165,VALID,0.0,VALID,92.537,VALID,0.02,VALID,20.964,VALID,104.0,VALID,0.084,
2019-10-05, 02:41:06,VALID,916.183,VALID,0.0,VALID,92.853,VALID,0.003,VALID,20.879,INVALID,360.0,VALID,0.0,
2019-10-05, 02:42:06,VALID,916.184,VALID,0.0,VALID,93.332,VALID,0.02,VALID,20.801,INVALID,360.0,VALID,0.0,
2019-10-05, 02:43:06,VALID,916.172,VALID,0.0,VALID,93.723,VALID,0.012,VALID,20.753,INVALID,360.0,VALID,0.0,
2019-10-05, 02:44:06,VALID,916.15,VALID,0.0,VALID,93.458,VALID,0.011,VALID,20.751,INVALID,360.0,VALID,0.0,
2019-10-05, 02:45:06,VALID,916.115,VALID,0.0,VALID,93.145,VALID,0.019,VALID,20.756,VALID,305.0,VALID,0.48,
2019-10-05, 02:46:06,VALID,916.125,VALID,0.0,VALID,92.329,VALID,0.021,VALID,20.77,VALID,303.0,VALID,0.212,
2019-10-05, 02:47:06,VALID,916.162,VALID,0.0,VALID,91.968,VALID,0.027,VALID,20.843,VALID,148.0,VALID,0.506,
2019-10-05, 02:48:06,VALID,916.18,VALID,0.0,VALID,92.192,VALID,0.017,VALID,20.781,VALID,125.0,VALID,0.454,
2019-10-05, 02:49:06,VALID,916.179,VALID,0.0,VALID,92.54,VALID,0.021,VALID,20.719,VALID,98.0,VALID,0.503,
2019-10-05, 02:50:06,VALID,916.138,VALID,0.0,VALID,92.894,VALID,0.003,VALID,20.658,INVALID,360.0,VALID,0.112,
2019-10-05, 02:51:06,VALID,916.142,VALID,0.0,VALID,93.149,VALID,0.01,VALID,20.61,INVALID,360.0,VALID,0.127,
2019-10-05, 02:52:06,VALID,916.184,VALID,0.0,VALID,93.073,VALID,0.016,VALID,20.579,INVALID,360.0,VALID,0.246,
2019-10-05, 02:53:06,VALID,916.178,VALID,0.0,VALID,93.494,VALID,-0.006,VALID,20.478,INVALID,360.0,VALID,0.035,
2019-10-05, 02:54:06,VALID,916.178,VALID,0.0,VALID,93.599,VALID,0.007,VALID,20.46,INVALID,360.0,VALID,0.0,
2019-10-05, 02:55:06,VALID,916.191,VALID,0.0,VALID,93.516,VALID,0.008,VALID,20.482,INVALID,360.0,VALID,0.0,
2019-10-05, 02:56:06,VALID,916.205,VALID,0.0,VALID,93.305,VALID,0.026,VALID,20.523,INVALID,360.0,VALID,0.0,
2019-10-05, 02:57:06,VALID,916.227,VALID,0.0,VALID,92.532,VALID,0.016,VALID,20.564,INVALID,360.0,VALID,0.0,
2019-10-05, 02:58:06,VALID,916.289,VALID,0.0,VALID,91.167,VALID,0.0,VALID,20.657,INVALID,360.0,VALID,0.0,
2019-10-05, 02:59:06,VALID,916.261,VALID,0.0,VALID,90.991,VALID,0.021,VALID,20.723,INVALID,360.0,VALID,0.04,
2019-10-05, 03:00:06,VALID,916.283,VALID,0.0,VALID,90.498,VALID,0.011,VALID,20.82,INVALID,360.0,VALID,0.085,
2019-10-05, 03:01:06,VALID,916.257,VALID,0.0,VALID,90.264,VALID,0.015,VALID,20.846,VALID,346.0,VALID,0.108,
2019-10-05, 03:02:06,VALID,916.227,VALID,0.0,VALID,90.32,VALID,-0.004,VALID,20.754,INVALID,360.0,VALID,0.295,
2019-10-05, 03:03:06,VALID,916.211,VALID,0.0,VALID,89.377,VALID,0.018,VALID,20.786,INVALID,360.0,VALID,0.102,
2019-10-05, 03:04:06,VALID,916.202,VALID,0.0,VALID,89.239,VALID,0.001,VALID,20.847,VALID,72.0,VALID,0.927,
2019-10-05, 03:05:06,VALID,916.222,VALID,0.0,VALID,89.714,VALID,0.022,VALID,20.797,VALID,79.0,VALID,1.111,
2019-10-05, 03:06:06,VALID,916.198,VALID,0.0,VALID,88.38,VALID,0.005,VALID,20.944,VALID,117.0,VALID,1.047,
2019-10-05, 03:07:06,VALID,916.189,VALID,0.0,VALID,88.451,VALID,-0.004,VALID,21.0,VALID,165.0,VALID,0.522,
2019-10-05, 03:08:06,VALID,916.177,VALID,0.0,VALID,88.77,VALID,-0.009,VALID,20.952,VALID,174.0,VALID,0.689,
2019-10-05, 03:09:06,VALID,916.181,VALID,0.0,VALID,88.429,VALID,-0.016,VALID,20.898,VALID,54.0,VALID,0.693,
2019-10-05, 03:10:06,VALID,916.168,VALID,0.0,VALID,89.251,VALID,-0.001,VALID,20.775,INVALID,360.0,VALID,0.16,
2019-10-05, 03:11:06,VALID,916.155,VALID,0.0,VALID,89.557,VALID,-0.002,VALID,20.73,INVALID,360.0,VALID,0.0,
2019-10-05, 03:12:06,VALID,916.154,VALID,0.0,VALID,89.357,VALID,-0.015,VALID,20.722,VALID,12.0,VALID,0.482,
2019-10-05, 03:13:06,VALID,916.126,VALID,0.0,VALID,88.982,VALID,-0.009,VALID,20.748,VALID,132.0,VALID,0.554,
2019-10-05, 03:14:06,VALID,916.137,VALID,0.0,VALID,88.513,VALID,-0.008,VALID,20.895,VALID,241.0,VALID,0.135,
2019-10-05, 03:15:06,VALID,916.157,VALID,0.0,VALID,87.61,VALID,-0.016,VALID,21.008,VALID,358.0,VALID,0.551,
2019-10-05, 03:16:06,VALID,916.172,VALID,0.0,VALID,86.647,VALID,0.0,VALID,21.072,VALID,25.0,VALID,0.175,
2019-10-05, 03:17:06,VALID,916.173,VALID,0.0,VALID,86.54,VALID,-0.004,VALID,21.112,INVALID,360.0,VALID,0.002,
2019-10-05, 03:18:06,VALID,916.186,VALID,0.0,VALID,86.496,VALID,-0.017,VALID,21.112,INVALID,360.0,VALID,0.076,
2019-10-05, 03:19:06,VALID,916.166,VALID,0.0,VALID,87.015,VALID,-0.025,VALID,21.042,VALID,55.0,VALID,0.131,
2019-10-05, 03:20:06,VALID,916.181,VALID,0.0,VALID,87.681,VALID,-0.011,VALID,20.937,VALID,81.0,VALID,0.264,
2019-10-05, 03:21:06,VALID,916.174,VALID,0.0,VALID,88.088,VALID,-0.031,VALID,20.837,INVALID,360.0,VALID,0.001,
2019-10-05, 03:22:06,VALID,916.162,VALID,0.0,VALID,88.677,VALID,-0.032,VALID,20.741,INVALID,360.0,VALID,0.02,
2019-10-05, 03:23:06,VALID,916.197,VALID,0.0,VALID,89.34,VALID,-0.026,VALID,20.672,INVALID,360.0,VALID,0.05,
2019-10-05, 03:24:06,VALID,916.187,VALID,0.0,VALID,89.812,VALID,-0.02,VALID,20.598,INVALID,360.0,VALID,0.0,
2019-10-05, 03:25:06,VALID,916.14,VALID,0.0,VALID,90.818,VALID,-0.025,VALID,20.537,INVALID,360.0,VALID,0.012,
2019-10-05, 03:26:06,VALID,916.132,VALID,0.0,VALID,91.1,VALID,-0.01,VALID,20.473,INVALID,360.0,VALID,0.0,
2019-10-05, 03:27:06,VALID,916.132,VALID,0.0,VALID,91.408,VALID,-0.027,VALID,20.358,INVALID,360.0,VALID,0.0,
2019-10-05, 03:28:06,VALID,916.147,VALID,0.0,VALID,92.09,VALID,-0.028,VALID,20.227,INVALID,360.0,VALID,0.0,
2019-10-05, 03:29:06,VALID,916.168,VALID,0.0,VALID,92.664,VALID,-0.024,VALID,20.121,INVALID,360.0,VALID,0.0,
2019-10-05, 03:30:06,VALID,916.177,VALID,0.0,VALID,93.023,VALID,-0.025,VALID,20.02,INVALID,360.0,VALID,0.034,
2019-10-05, 03:31:06,VALID,916.158,VALID,0.0,VALID,94.192,VALID,-0.022,VALID,19.987,VALID,160.0,VALID,0.379,
2019-10-05, 03:32:06,VALID,916.126,VALID,0.0,VALID,95.28,VALID,-0.02,VALID,20.019,VALID,209.0,VALID,0.46,
2019-10-05, 03:33:06,VALID,916.13,VALID,0.0,VALID,95.617,VALID,-0.025,VALID,20.031,INVALID,360.0,VALID,0.117,
2019-10-05, 03:34:06,VALID,916.119,VALID,0.0,VALID,94.785,VALID,-0.015,VALID,19.916,INVALID,360.0,VALID,0.015,
2019-10-05, 03:35:06,VALID,916.118,VALID,0.0,VALID,95.661,VALID,-0.002,VALID,19.913,INVALID,360.0,VALID,0.014,
2019-10-05, 03:36:06,VALID,916.122,VALID,0.0,VALID,96.154,VALID,-0.003,VALID,19.9,INVALID,360.0,VALID,0.008,
2019-10-05, 03:37:06,VALID,916.13,VALID,0.0,VALID,96.23,VALID,0.006,VALID,19.901,VALID,12.0,VALID,0.063,
2019-10-05, 03:38:06,VALID,916.161,VALID,0.0,VALID,96.833,VALID,0.02,VALID,19.937,VALID,41.0,VALID,0.168,